Regional Weather Roundup
Issued by NWS

Home | Current Version | Previous Version | Graphics & Text | Print | Product List | Glossary On
Versions: 1 2 3 4 5 6 7 8 9 10 11 12 13 14 15 16 17 18 19 20 21 22 23 24 25 26 27 28 29 30 31 32 33 34 35 36 37
000
ASUS45 KBOU 222207
RWRCO

WEATHER ROUNDUP FOR COLORADO
NATIONAL WEATHER SERVICE DENVER/BOULDER CO
400 PM MDT WED OCT 22 2014

NOTE: "FAIR" INDICATES FEW OR NO CLOUDS BELOW 12000 FEET WITH NO
SIGNIFICANT WEATHER AND/OR OBSTRUCTIONS TO VISIBILITY.

COZ001>005-013-030-031-222300-
...NORTHWEST COLORADO...

CITY           SKY/WX    TMP DP  RH WIND       PRES   REMARKS
CRAIG          SUNNY     59  34  39 W10       30.18S
HAYDEN         SUNNY     55  34  44 W13G18    30.19R
MEEKER         MOSUNNY   60  35  39 W6        30.17S
MOUNT WERNER   NOT AVBL
STEAMBOAT SPGS SUNNY     55  31  39 W8        30.20R
WALDEN         SUNNY     54  25  32 W15G23    30.21R
$$

COZ006>008-011-222300-
...WEST CENTRAL VALLEYS...

CITY           SKY/WX    TMP DP  RH WIND       PRES   REMARKS
GRAND JUNCTION MOSUNNY   68  43  40 VRB6      30.10F
MONTROSE       CLOUDY    65  39  38 NW12      30.16R
EAGLE          PTSUNNY   59  39  47 SW13      30.19R
RIFLE          MOSUNNY   60  40  47 N17G24    30.15R
DELTA          PTSUNNY   73  35  25 W8        30.12R
NUCLA          MOSUNNY   70  28  21 W9G16     30.18F
$$

COZ017>023-064>068-222300-
...SOUTHWEST COLORADO...

CITY           SKY/WX    TMP DP  RH WIND       PRES   REMARKS
DURANGO        CLOUDY    62  42  47 SW9       30.19F
CORTEZ         SUNNY     68  35  29 NW9G18    30.17S
PAGOSA SPRINGS CLOUDY    57  39  52 E3        30.26R
TELLURIDE      CLOUDY    54  32  43 W7        30.32S
WOLF CREEK PAS PTSUNNY   34  32  93 SW16G22     N/A  WCI  23
$$

COZ009-010-012-014-032>034-037-058>063-222300-
...CENTRAL COLORADO...

CITY           SKY/WX    TMP DP  RH WIND       PRES   REMARKS
ASPEN          CLOUDY    47  39  74 W3        30.25S
BUENA VISTA    CLOUDY    53  34  47 W21       30.23R
COPPER MTN     CLOUDY    37  30  75 SW9G17    30.41R
BERTHOUD PASS  CLOUDY    28  25  86 NW12G20   30.41R FOG     WCI  18
COTTONWOOD PAS LGT RAIN  45  36  70 N8        30.31R
GUNNISON       PTSUNNY   54  39  58 MISG      30.25S
KREMMLING      PTSUNNY   54  34  47 CALM        N/A
LEADVILLE      CLOUDY    41  31  67 NW14G20   30.31R
MONARCH PASS   FOG       32  32 100 W20       30.50R VSB 1/2 WCI  20
SALIDA         PTSUNNY   58  36  43 W14G21    30.29R
SUNLIGHT       PTSUNNY   43  36  75 CALM      30.37S
WILKERSON PASS NOT AVBL
$$

COZ069>075-222300-
...SAN LUIS VALLEY/SANGRE DE CRISTO MOUNTAINS...

CITY           SKY/WX    TMP DP  RH WIND       PRES   REMARKS
ALAMOSA        CLOUDY    62  28  27 SW7       30.19R
LA VETA PASS   MOSUNNY   52  27  37 S5        30.32S
SAGUACHE       CLOUDY    55  36  47 N8        30.24R
$$

COZ035-036-038>040-222300-
...NORTHERN COLORADO FRONT RANGE...

CITY           SKY/WX    TMP DP  RH WIND       PRES   REMARKS
DENVER INTL AP PTSUNNY   71  35  26 VRB5      30.07S
DMNS CITY PARK   N/A     68  34  28 N6G12     30.06S
AURORA         PTSUNNY   68  38  33 NE8       30.09R
FRONT RANGE AP NOT AVBL
ERIE MUNI ARPT CLOUDY    68  35  28 NW10      30.07R
BOULDER MUN AP PTSUNNY   68  36  30 W10G17    30.07S
CENTENNIAL     PTSUNNY   67  31  26 NW6       30.08S
BROOMFIELD     PTSUNNY   66  36  32 NW8       30.09S
FORT COLLINS   PTSUNNY   66  43  42 SW9       30.06R
LONGMONT       PTSUNNY   68  37  31 W12       30.08F
$$

COZ041-046-047-076>085-087-088-222300-
...PIKES PEAK/PALMER DIVIDE AND SOUTHERN FOOTHILLS...

CITY           SKY/WX    TMP DP  RH WIND       PRES   REMARKS
COLO. SPRINGS  PTSUNNY   63  38  39 SE5       30.12R
A. F. ACADEMY  LGT RAIN  56  44  63 VRB1      30.13S
ELLICOTT       PTSUNNY   64  36  35 W15G26    30.11R
FALCON         LGT RAIN  61  38  41 N6        30.16S
FORT CARSON    CLOUDY    64  42  44 E8        30.09R
LIMON          PTSUNNY   64  35  34 VRB5      30.09S
MONUMENT HILL  PTSUNNY   59  34  38 N7        30.15R
TRINIDAD       MOSUNNY   70  37  29 VRB5      30.09S
$$

COZ042>045-048>051-090-091-222300-
...NORTHEAST COLORADO...

CITY           SKY/WX    TMP DP  RH WIND       PRES   REMARKS
GREELEY ARPT   PTSUNNY   70  37  30 CALM      30.05S
AKRON          SUNNY     67  37  33 CALM      30.06S
BURLINGTON     SUNNY     73  39  29 NE8       30.04S
WRAY           SUNNY     73  36  26 N8G16     30.03S
STERLING       SUNNY     72  39  30 SE7       30.03S
HOLYOKE        SUNNY     73  34  23 N9G16     30.05S
FORT MORGAN    SUNNY     69  36  29 CALM      30.06S
$$

COZ086-089-092>099-222300-
...SOUTHEAST COLORADO...

CITY           SKY/WX    TMP DP  RH WIND       PRES   REMARKS
PUEBLO         MOSUNNY   74  38  27 SE7       30.02S
LA JUNTA       SUNNY     74  42  31 VRB3      30.02S
LAMAR          SUNNY     75  44  33 N6        30.00S
SPRINGFIELD      N/A     73  43  33 N10       30.04S
$$



USA.gov is the U.S. government's official web portal to all federal, state and local government web resources and services.